Change the Weather History Date:

Sunday, October 14, 2012

  Actual Average Record
Temperature  
Mean Temperature 63 °F -  
Max Temperature 69 °F 69 °F 82 °F (2008)
Min Temperature 57 °F 50 °F 36 °F (2006)
Degree Days  
Heating Degree Days 2    
Growing Degree Days 13 (Base 50)    
Moisture  
Dew Point 54 °F    
Average Humidity 71    
Maximum Humidity 87    
Minimum Humidity 59    
Precipitation  
Precipitation 0.00 in - - ()
Sea Level Pressure  
Sea Level Pressure 30.21 in    
Wind  
Wind Speed 2 mph (NW)    
Max Wind Speed 6 mph    
Max Gust Speed -    
Visibility 10 miles    
Events Rain    
Averages and records for this station are not official NWS values.
T = Trace of Precipitation, MM = Missing Value Source: NWS Daily Summary

Daily Weather History Graph

Daily Weather History Graph

Search for Another Location

Airport or City:

Trip Planner

Search our weather history database for the weather conditions in past years. The results will help you decide how hot, cold, wet, or windy it might be!

Date:

Astronomy

Oct. 14, 2012 Rise Set
Actual Time 7:34 AM EDT 6:55 PM EDT
Civil Twilight 7:09 AM EDT 7:20 PM EDT
Nautical Twilight 6:39 AM EDT 7:49 PM EDT
Astronomical Twilight 6:10 AM EDT 8:19 PM EDT
Moon 6:33 AM EDT (10/14) 6:14 PM EDT (10/14)
Length of Visible Light 12h 11m
Length of Day
11h 20m
Waning Crescent, 1% of the Moon is Illuminated
Oct 14
Waning Crescent
Oct 15
New
Oct 21
First Quarter
Oct 29
Full
Nov 6
Last Quarter

Hourly Weather History & Observations

Time (EDT) Temp. Dew Point Humidity Pressure Visibility Wind Dir Wind Speed Gust Speed Precip Events Conditions
12:53 AM 57.0 °F 48.0 °F 72% 30.32 in 10.0 mi NNE 3.5 mph - N/A   Overcast
1:53 AM 57.0 °F 48.0 °F 72% 30.32 in 10.0 mi North 5.8 mph - N/A   Overcast
2:53 AM 57.9 °F 48.0 °F 70% 30.30 in 10.0 mi East 3.5 mph - N/A   Overcast
3:53 AM 57.9 °F 48.9 °F 72% 30.29 in 10.0 mi North 3.5 mph - N/A   Overcast
4:53 AM 57.9 °F 48.9 °F 72% 30.26 in 10.0 mi Calm Calm - N/A   Overcast
5:53 AM 57.9 °F 48.9 °F 72% 30.26 in 10.0 mi North 3.5 mph - N/A   Overcast
6:53 AM 57.9 °F 51.1 °F 78% 30.27 in 10.0 mi Calm Calm - N/A   Overcast
7:53 AM 59.0 °F 51.1 °F 75% 30.27 in 10.0 mi Calm Calm - N/A   Overcast
8:53 AM 60.1 °F 51.1 °F 72% 30.28 in 10.0 mi Calm Calm - N/A   Overcast
9:53 AM 62.1 °F 50.0 °F 65% 30.27 in 10.0 mi North 3.5 mph - N/A   Overcast
10:22 AM 62.6 °F 50.0 °F 63% 30.28 in 10.0 mi Calm Calm - N/A   Overcast
10:53 AM 63.0 °F 50.0 °F 63% 30.26 in 10.0 mi Calm Calm - N/A   Overcast
11:09 AM 64.4 °F 50.0 °F 59% 30.27 in 10.0 mi Calm Calm - N/A   Overcast
11:40 AM 64.4 °F 51.8 °F 64% 30.27 in 10.0 mi WNW 3.5 mph - N/A   Overcast
11:53 AM 64.0 °F 51.1 °F 63% 30.26 in 10.0 mi Calm Calm - N/A   Overcast
12:30 PM 64.4 °F 51.8 °F 64% 30.26 in 10.0 mi Calm Calm - N/A   Overcast
12:53 PM 66.9 °F 55.0 °F 66% 30.24 in 10.0 mi South 4.6 mph - N/A   Overcast
1:23 PM 66.2 °F 55.4 °F 68% 30.24 in 10.0 mi West 5.8 mph - 0.00 in Rain Light Rain
1:34 PM 66.2 °F 55.4 °F 68% 30.23 in 10.0 mi West 4.6 mph - 0.00 in   Overcast
1:49 PM 66.2 °F 55.4 °F 68% 30.23 in 10.0 mi WNW 4.6 mph - 0.00 in Rain Light Rain
1:53 PM 66.0 °F 55.9 °F 70% 30.21 in 10.0 mi Calm Calm - 0.00 in Rain Light Rain
2:09 PM 66.2 °F 55.4 °F 68% 30.21 in 10.0 mi Calm Calm - 0.00 in   Overcast
2:16 PM 68.0 °F 55.4 °F 64% 30.21 in 10.0 mi Calm Calm - 0.00 in   Overcast
2:53 PM 68.0 °F 57.0 °F 68% 30.18 in 10.0 mi Variable 5.8 mph - 0.00 in   Overcast
4:53 PM 69.1 °F 59.0 °F 70% 30.13 in 10.0 mi WSW 5.8 mph - N/A   Partly Cloudy
5:53 PM 69.1 °F 59.0 °F 70% 30.12 in 10.0 mi West 4.6 mph - N/A   Mostly Cloudy
6:53 PM 66.9 °F 59.0 °F 76% 30.09 in 10.0 mi SSW 3.5 mph - N/A   Clear
7:53 PM 64.9 °F 59.0 °F 81% 30.09 in 10.0 mi Calm Calm - N/A   Clear
8:53 PM 64.9 °F 60.1 °F 84% 30.07 in 10.0 mi Calm Calm - N/A   Clear
9:53 PM 63.0 °F 59.0 °F 87% 30.06 in 10.0 mi Calm Calm - N/A   Clear
10:53 PM 63.0 °F 59.0 °F 87% 30.06 in 10.0 mi Calm Calm - N/A   Mostly Cloudy
11:53 PM 63.0 °F 59.0 °F 87% 30.05 in 10.0 mi Calm Calm - N/A   Overcast